[[{"header":{"parameterUnit":"m.s-1","parameterCategory":1,"la1":30.2991,"la2":30.254,"lo1":-89.0895,"lo2":-89.0444,"dy":0.0017,"dx":0.0017,"nx":28,"ny":28,"refTime":"2025-03-18T03:00:00:Z","depth":0,"parameterNumber":2,"parameterNumberName":"U-component_of_WINDS"},"data":[0,0,0,0,0,0,0,0,0,0,0,0,0,0,0,0,0,0,0,0,0,0,0,0,0,0,0,0,0,0,0,0,0,0,0,0,0,0,0,0,0,0,0,0,0,0,0,0,0,0,0,0,0,0,0,0,0,0,2.5662,2.5663,0,2.5802,2.5804,2.5805,2.579,2.5788,2.5786,2.5783,2.5927,2.5933,2.5938,0,0,0,0,0,0,0,0,0,0,0,0,0,2.5379,2.5384,2.5661,2.5663,2.5665,2.5802,2.5804,2.5806,2.579,2.5788,2.5785,2.5782,2.5925,2.5932,2.5939,0,0,0,0,0,0,0,0,0,0,0,0,0,2.5509,2.5386,2.5661,2.5674,2.5676,2.5802,2.5804,2.5806,2.5791,2.5788,2.5784,2.5781,2.5923,2.5931,2.594,2.6061,0,0,2.5967,2.5971,0,0,0,0,0,0,0,0,2.5502,2.5519,2.567,2.5673,2.5676,2.5775,2.5757,2.5892,2.5792,2.5747,2.5783,2.5779,2.5879,2.5891,2.5925,2.6068,2.6074,2.5968,2.5973,2.5977,2.5979,0,0,0,0,0,0,0,2.5493,2.5513,2.5717,2.5672,2.5676,2.5672,2.5687,2.5782,2.583,2.5751,2.575,2.5767,2.588,2.5916,2.5928,2.6076,2.5967,2.5975,2.5981,2.5984,2.6326,2.6329,0,0,0,0,0,0,2.5481,2.5506,2.5713,2.5721,2.5579,2.568,2.5697,2.5747,2.5829,2.5838,2.577,2.5766,2.5903,2.5918,2.5933,2.608,2.5977,2.5985,2.599,2.6322,2.6327,2.6331,0,0,0,0,0,0,2.5475,2.5499,2.5707,2.5613,2.564,2.5689,2.5745,2.5751,2.5788,2.5843,2.5852,2.5798,2.5901,2.5921,2.603,2.6085,2.5989,2.5997,2.6318,2.6323,2.6329,2.6375,0,0,0,0,0,0,2.5467,2.5497,2.5544,2.5615,2.5645,2.5801,2.5748,2.5756,2.5803,2.5799,2.5872,2.5881,2.59,2.6016,2.6038,2.6095,2.6004,2.6313,2.632,2.6327,2.6369,2.6381,2.6392,0,0,0,0,0,2.5457,2.5551,2.5546,2.5571,2.5704,2.5804,2.5821,2.5841,2.5808,2.5855,2.5891,2.5879,2.6076,2.6028,2.6052,2.6113,2.6309,2.6318,2.6326,2.6363,2.6379,2.6392,0,0,0,0,0,0,2.5485,2.5561,2.5556,2.5676,2.5734,2.5801,2.5861,2.5857,2.5925,2.5919,2.5941,2.5957,2.6067,2.6101,2.6046,2.6234,2.6188,2.6202,2.6208,2.6223,2.6235,2.6223,2.6011,0,0,0,0,0,2.5506,2.5581,2.5643,2.5743,2.5772,2.5812,2.5857,2.5867,2.5927,2.5952,2.5995,2.6054,2.6129,2.6178,2.6251,2.6374,2.6389,2.6428,2.644,2.6449,2.646,2.6527,2.6545,2.6358,2.6358,2.6358,0,0,2.5548,2.5599,2.5645,2.575,2.5796,2.5873,2.5833,2.5916,2.5973,2.5964,2.6069,2.6104,2.6171,2.6288,2.6341,2.6319,2.6516,2.646,2.6467,2.6473,2.6538,2.6556,2.6571,2.6364,2.6363,2.6362,0,0,2.5665,2.5712,2.58,2.5847,2.5917,2.5943,2.5964,2.6033,2.6055,2.6161,2.6156,2.6225,2.6354,2.6402,2.6443,2.6579,2.657,2.6602,2.6664,2.6729,2.6743,2.6756,2.6804,2.6821,2.6613,2.6614,2.6614,0,2.5709,2.5825,2.5846,2.593,2.5976,2.5972,2.6061,2.6106,2.6196,2.6228,2.6203,2.6364,2.641,2.6537,2.657,2.6604,2.6629,2.6593,2.674,2.6753,2.6766,2.6811,2.6829,2.6617,2.6617,2.6616,2.6616,0,2.5875,2.5956,2.6019,2.6106,2.616,2.6246,2.6279,2.6331,2.6337,2.6366,2.6474,2.6528,2.6611,2.6642,2.6649,2.6771,2.6755,2.6735,2.6688,2.6786,2.6829,2.6847,2.6622,2.662,2.6619,2.6619,0,0,2.6013,2.6111,2.6133,2.6172,2.625,2.6313,2.6399,2.648,2.6524,2.6587,2.6659,2.6769,2.6751,2.6798,2.681,2.6868,2.6971,2.684,2.6842,2.6861,2.7107,2.712,2.714,2.6966,2.697,2.6972,2.7101,0,2.6136,2.6288,2.631,2.6444,2.6519,2.6517,2.6592,2.6647,2.6677,2.6744,2.6777,2.6854,2.6824,2.6853,2.691,2.6946,2.702,2.6937,2.7033,2.7036,2.7014,2.7163,2.7178,2.7296,2.7118,2.7121,2.7123,0,2.63,2.6367,2.6509,2.6576,2.6608,2.6676,2.6752,2.6816,2.688,2.6897,2.695,2.6955,2.7044,2.6996,2.7119,2.7062,2.7103,2.7127,2.7132,2.714,2.7084,2.7173,2.7334,2.7351,2.715,2.7148,2.7146,0,2.6384,2.651,2.6611,2.6645,2.6727,2.6774,2.681,2.687,2.6917,2.6984,2.7015,2.7092,2.7133,2.7192,2.7218,2.718,2.7339,2.7293,2.7355,2.7354,2.7387,2.7384,2.7555,2.7416,2.7416,2.7416,2.7415,0,2.6518,2.6605,2.665,2.6712,2.6809,2.6833,2.6928,2.6963,2.7017,2.7085,2.7089,2.7153,2.7184,2.7253,2.7274,2.7372,2.7391,2.7407,2.7411,2.7406,2.7404,2.7431,2.7423,2.742,2.7419,2.7418,2.7418,0,2.6628,2.6662,2.6772,2.684,2.6859,2.6927,2.6986,2.7046,2.7075,2.7162,2.7184,2.723,2.7311,2.7343,2.7443,2.7457,2.757,2.7568,2.7548,2.7549,2.7609,2.7602,2.7802,2.7829,2.7674,2.7676,2.7677,0,2.6711,2.6777,2.6853,2.6899,2.6936,2.7011,2.7059,2.7086,2.7136,2.7214,2.7264,2.7346,2.7412,2.7542,2.7585,2.7661,2.766,2.7725,2.7672,2.7664,2.766,2.7655,2.7661,2.7734,2.7736,2.7737,2.7738,0,2.6854,2.6867,2.6937,2.7013,2.7071,2.7132,2.7191,2.7229,2.7264,2.7321,2.7404,2.7456,2.7558,2.7638,2.7717,2.7754,2.7752,2.7755,2.7773,2.7767,2.7752,2.776,2.7573,2.775,2.7749,2.7748,2.7747,2.7747,2.6951,2.701,2.7072,2.715,2.7197,2.7253,2.7313,2.735,2.742,2.7504,2.7516,2.7605,2.7667,2.7773,2.7813,2.7883,2.7866,2.7893,2.7899,2.7905,2.7908,2.7743,2.7898,2.7897,2.7897,2.7897,2.7897,0,2.7093,2.7133,2.7204,2.7287,2.7348,2.7342,2.7408,2.7459,2.7537,2.7595,2.766,2.7756,2.7834,2.7883,2.7962,2.8009,2.801,2.8028,2.8024,2.8033,2.792,2.7895,2.8026,2.8026,2.8026,2.8026,2.8026,2.8026,2.7174,2.7273,2.7294,2.7416,2.7456,2.7543,2.7581,2.7632,2.7678,2.7785,2.785,2.7881,2.7935,2.8018,2.809,2.8102,2.813,2.815,2.8161,2.8054,2.8041,2.8028,2.8005,2.8156,2.8156,2.8267,2.8268,2.8269]},{"header":{"parameterUnit":"m.s-1","parameterCategory":1,"la1":30.2991,"la2":30.254,"lo1":-89.0895,"lo2":-89.0444,"dy":0.0017,"dx":0.0017,"nx":28,"ny":28,"refTime":"2025-03-18T03:00:00:Z","depth":0,"parameterNumber":3,"parameterNumberName":"V-component_of_WINDS"},"data":[0,0,0,0,0,0,0,0,0,0,0,0,0,0,0,0,0,0,0,0,0,0,0,0,0,0,0,0,0,0,0,0,0,0,0,0,0,0,0,0,0,0,0,0,0,0,0,0,0,0,0,0,0,0,0,0,0,0,2.2069,2.2069,0,2.206,2.206,2.206,2.1989,2.1988,2.1986,2.1984,2.1977,2.1979,2.198,0,0,0,0,0,0,0,0,0,0,0,0,0,2.2028,2.2029,2.2069,2.2069,2.2069,2.206,2.206,2.206,2.199,2.1988,2.1986,2.1984,2.1977,2.1978,2.198,0,0,0,0,0,0,0,0,0,0,0,0,0,2.2035,2.2029,2.2069,2.2033,2.203,2.206,2.206,2.206,2.199,2.1988,2.1985,2.1983,2.1976,2.1978,2.198,2.2046,0,0,2.1987,2.1988,0,0,0,0,0,0,0,0,2.2035,2.2036,2.2038,2.2036,2.2032,2.2023,2.2042,2.2055,2.1991,2.2005,2.1984,2.1981,2.1995,2.1995,2.1999,2.2045,2.2045,2.1987,2.1988,2.1989,2.199,0,0,0,0,0,0,0,2.2034,2.2036,2.2066,2.2039,2.2035,2.2017,2.2016,2.2045,2.2015,2.2004,2.1999,2.1998,2.1992,2.1997,2.1999,2.2045,2.1987,2.1989,2.199,2.1991,2.2142,2.2145,0,0,0,0,0,0,2.2038,2.2037,2.2066,2.2065,2.2027,2.202,2.2018,2.2029,2.2014,2.201,2.2001,2.1995,2.1995,2.1996,2.1998,2.2073,2.1989,2.1991,2.1993,2.214,2.2143,2.2146,0,0,0,0,0,0,2.2038,2.2042,2.2066,2.205,2.2051,2.2024,2.2036,2.203,2.2035,2.2012,2.2006,2.2011,2.1993,2.1995,2.2034,2.2071,2.1992,2.1994,2.2136,2.2141,2.2144,2.2223,0,0,0,0,0,0,2.2037,2.2042,2.2066,2.2051,2.2052,2.2102,2.2038,2.2032,2.2038,2.2031,2.202,2.2016,2.1991,2.2031,2.2036,2.2073,2.1996,2.2133,2.2138,2.2143,2.2217,2.2229,2.224,0,0,0,0,0,2.2036,2.209,2.2068,2.2072,2.2082,2.2105,2.2106,2.2075,2.2042,2.2066,2.2051,2.2016,2.2066,2.2036,2.2041,2.2079,2.2131,2.2137,2.2143,2.2212,2.2227,2.224,0,0,0,0,0,0,2.2112,2.2087,2.2063,2.2113,2.2111,2.2093,2.2123,2.2093,2.2101,2.2094,2.2057,2.2055,2.2099,2.2093,2.2059,2.214,2.2092,2.21,2.2143,2.2157,2.2168,2.2169,2.1998,0,0,0,0,0,2.2135,2.2154,2.2132,2.2178,2.2178,2.2151,2.2159,2.2136,2.2133,2.2132,2.212,2.2119,2.2134,2.2145,2.2158,2.2215,2.2212,2.2244,2.2255,2.2265,2.2272,2.23,2.2314,2.2166,2.2166,2.2166,0,0,2.2182,2.2171,2.2186,2.2193,2.2189,2.221,2.2151,2.2176,2.2192,2.2136,2.2172,2.2163,2.2159,2.2207,2.2227,2.2203,2.2312,2.2273,2.228,2.2282,2.2308,2.2322,2.2335,2.217,2.217,2.2169,0,0,2.2279,2.2273,2.231,2.2307,2.23,2.2281,2.229,2.2276,2.2267,2.2302,2.226,2.2278,2.2306,2.2304,2.2307,2.2401,2.2369,2.2406,2.2467,2.2495,2.2506,2.2517,2.255,2.2562,2.2413,2.2414,2.2414,0,2.2339,2.2369,2.2334,2.2361,2.2365,2.2315,2.2352,2.2351,2.235,2.2354,2.2326,2.2358,2.2352,2.2398,2.2421,2.2425,2.2434,2.2408,2.2507,2.2517,2.2526,2.2557,2.257,2.2418,2.2418,2.2417,2.2417,0,2.2442,2.2463,2.2495,2.2493,2.2501,2.2534,2.2503,2.2515,2.2491,2.2475,2.251,2.2501,2.251,2.2519,2.2496,2.2562,2.2547,2.2514,2.2465,2.2545,2.2574,2.2586,2.2425,2.2423,2.2422,2.2421,0,0,2.2589,2.2566,2.2578,2.2576,2.2564,2.258,2.261,2.2618,2.2629,2.2629,2.2653,2.2677,2.2645,2.2649,2.2625,2.265,2.2724,2.2613,2.2613,2.2634,2.2795,2.282,2.2834,2.2702,2.2704,2.2706,2.2795,0,2.2682,2.273,2.2699,2.2753,2.2771,2.2722,2.2748,2.2744,2.2729,2.2743,2.2727,2.2744,2.2702,2.2703,2.2726,2.271,2.2756,2.2703,2.2724,2.2725,2.2727,2.2849,2.2876,2.296,2.2806,2.2808,2.2809,0,2.2797,2.28,2.2856,2.2839,2.2845,2.2869,2.2873,2.2887,2.2881,2.2868,2.2871,2.284,2.2868,2.282,2.2857,2.2822,2.2829,2.2823,2.2825,2.2826,2.2772,2.2853,2.2986,2.2999,2.2826,2.2825,2.2824,0,2.2897,2.2916,2.2951,2.2951,2.2933,2.295,2.2943,2.2934,2.2941,2.2944,2.2948,2.2955,2.296,2.2966,2.2938,2.2905,2.2979,2.2928,2.297,2.297,2.2988,2.2987,2.3124,2.2992,2.2992,2.2992,2.2992,0,2.3004,2.304,2.2996,2.3018,2.3056,2.3019,2.3059,2.3047,2.3039,2.3057,2.3016,2.3034,2.2996,2.3011,2.2989,2.3023,2.3025,2.3016,2.301,2.302,2.3021,2.3024,2.3017,2.2995,2.2995,2.2994,2.2993,0,2.3124,2.3096,2.3131,2.3109,2.3104,2.3134,2.3115,2.3135,2.3116,2.314,2.3144,2.3116,2.313,2.3102,2.3114,2.3099,2.3147,2.3132,2.3149,2.3145,2.3187,2.3184,2.3331,2.3348,2.3206,2.3207,2.3208,0,2.3194,2.322,2.32,2.3209,2.3204,2.3219,2.3225,2.3189,2.3197,2.319,2.321,2.3221,2.3228,2.3254,2.3235,2.3243,2.3228,2.3279,2.3229,2.3238,2.3228,2.3227,2.3229,2.3289,2.3291,2.3292,2.3293,0,2.3321,2.3305,2.3314,2.3318,2.3326,2.3327,2.3326,2.3336,2.3298,2.3309,2.3322,2.3328,2.3338,2.335,2.3353,2.3346,2.3314,2.3309,2.3319,2.333,2.3338,2.3334,2.3177,2.3306,2.3305,2.3304,2.3303,2.3303,2.3418,2.3438,2.3427,2.3438,2.3433,2.3432,2.3449,2.3431,2.3442,2.3447,2.3425,2.3444,2.3436,2.3437,2.3433,2.3447,2.3424,2.3439,2.3443,2.3447,2.3453,2.3336,2.3448,2.3447,2.3447,2.3447,2.3446,0,2.3542,2.3532,2.3543,2.3541,2.355,2.3517,2.3513,2.3523,2.3539,2.3534,2.3541,2.3556,2.3566,2.3547,2.3554,2.3569,2.3554,2.3572,2.3571,2.357,2.3474,2.3464,2.3584,2.3584,2.3584,2.3584,2.3584,2.3584,2.3608,2.364,2.3623,2.3652,2.3641,2.3658,2.3659,2.3658,2.3653,2.3672,2.368,2.3666,2.3655,2.3661,2.3669,2.3663,2.3667,2.3691,2.368,2.359,2.3577,2.3564,2.3555,2.3692,2.3692,2.3774,2.3775,2.3776]}]]